Regional Weather Roundup
Issued by NWS

Home | Current Version | Previous Version | Graphics & Text | Print | Product List | Glossary On
Versions: 1 2 3 4 5 6 7 8 9 10 11 12 13 14 15 16 17 18 19 20 21 22 23 24 25 26 27 28 29 30 31 32 33 34 35 36 37 38 39 40 41 42 43 44 45 46 47 48 49 50
000
ASUS43 KFSD 230810
RWRSD

WEATHER ROUNDUP FOR SOUTH DAKOTA
NATIONAL WEATHER SERVICE SIOUX FALLS SD
300 AM CDT TUE SEP 23 2014

NOTE: "FAIR" INDICATES FEW OR NO CLOUDS BELOW 12,000 FEET WITH NO
SIGNIFICANT WEATHER AND/OR OBSTRUCTIONS TO VISIBILITY.


SDZ001>005-009-010-012>017-230900-
NORTHWEST AND NORTH CENTRAL SOUTH DAKOTA

CITY           SKY/WX    TMP DP  RH WIND       PRES   REMARKS
BUFFALO          N/A     62  51  67 SE3       29.83F
FAITH            N/A     61  58  90 S15       29.90S
MOBRIDGE       PTCLDY    63  55  75 SE16      29.92F
$$

SDZ012>016-024>037-041>051-057-063-072>074-230900-
SOUTHWEST AND SOUTH CENTRAL SOUTH DAKOTA

CITY           SKY/WX    TMP DP  RH WIND       PRES   REMARKS
RAPID CTY ARPT MOCLDY    57  54  89 SE8       29.92F
PIERRE         CLOUDY    62  54  74 S17       29.95F
CUSTER         CLOUDY    52  47  83 CALM      30.03F
ELLSWORTH AFB  MOCLDY    61  56  82 S8        29.91F
PHILIP         CLOUDY    60  53  77 SE6       29.93R
PINE RIDGE     CLEAR     58  52  80 SW14G23   29.95F
WINNER         CLOUDY    62  54  74 S16G24    30.00F
$$

SDZ004>011-016>023-039-040-230900-
NORTHEAST SOUTH DAKOTA

CITY           SKY/WX    TMP DP  RH WIND       PRES   REMARKS
ABERDEEN       CLEAR     60  50  69 S12       30.02S
WATERTOWN      CLEAR     53  48  83 SE10      30.07F
SISSETON         N/A     52  49  89 SE8       30.05S
$$

SDZ017-020-022-023-036>040-048>070-230900-
SOUTHEAST SOUTH DAKOTA

CITY           SKY/WX    TMP DP  RH WIND       PRES   REMARKS
SIOUX FALLS    CLOUDY    60  50  69 S9        30.11F
HURON          MOCLDY    63  51  65 S9        30.04F
CHAMBERLAIN    CLOUDY    60  55  83 SE10      30.02F
MITCHELL       CLOUDY    62  54  74 S12       30.07S
YANKTON        CLOUDY    57  52  82 SE3       30.11F
$$

ABBREVIATIONS USED IN REMARKS
   TC - TEMPERATURE IN CELSIUS
  WCI - WIND CHILL INDEX
   HX - HEAT INDEX
  VSB - VISIBILITY




USA.gov is the U.S. government's official web portal to all federal, state and local government web resources and services.